Regional Weather Roundup
Issued by NWS Albany, NY

Home | Current Version | Previous Version | Text Only | Print | Product List | Glossary On
Versions: 1 2 3 4 5 6 7 8 9 10 11 12 13 14 15 16 17 18 19 20 21 22 23 24 25 26 27
000
ASUS41 KALY 300910
RWRALY

NEW YORK STATE HOURLY WEATHER ROUNDUP
NATIONAL WEATHER SERVICE ALBANY NY
500 AM EDT SAT APR 30 2016

NOTE: "FAIR" INDICATES FEW OR NO CLOUDS BELOW 12,000 FEET WITH NO
SIGNIFICANT WEATHER AND/OR NO OBSTRUCTIONS TO VISIBILITY.

NYZ032-033-038>043-046>054-057>066-NYZ062>081-082-084-301000-
EAST


CITY           SKY/WX    TMP DP  RH WIND       PRES   REMARKS
ALBANY         MOCLDY    45  38  76 S5        30.16R
GLENS FALLS    CLEAR     36  26  67 N3        30.16R
POUGHKEEPSIE   CLOUDY    46  42  86 SW5       30.16R
NEWBURGH       MOCLDY    43  43 100 CALM      30.17R
MONTGOMERY     CLOUDY    44  42  93 W5        30.18R
WHITE PLAINS   MOCLDY    44  41  89 CALM      30.16R
ISLIP          CLOUDY    45  38  76 NE3       30.17R
NEW YORK CITY  CLOUDY    48  38  68 E6        30.17R
CENTRAL PARK   CLOUDY    47  37  68 NE3       30.20R
$$

NYZ005>009-017-018-044>046-055-056-301000-
CENTRAL


CITY           SKY/WX    TMP DP  RH WIND       PRES   REMARKS
FULTON         CLOUDY    45  41  86 W3        30.18R
SYRACUSE       MOCLDY    46  43  89 CALM      30.18R
ROME           CLOUDY    37  34  89 CALM      30.19R
ELMIRA         CLOUDY    43  40  89 NE5       30.16R
BINGHAMTON     CLOUDY    39  39 100 CALM      30.15R
MONTICELLO     CLOUDY    39  39 100 NW5       30.18R
$$

NYZ026>034-041>043-087-301000-
NORTH


CITY           SKY/WX    TMP DP  RH WIND       PRES   REMARKS
WATERTOWN      PTCLDY    30  25  81 CALM      30.19R
FORT DRUM      NOT AVBL
MASSENA        CLEAR     28  22  78 CALM      30.21R
SARANAC LAKE   CLEAR     24  18  77 CALM      30.14R
PLATTSBURGH    CLEAR     37  15  40 NW7       30.19R WCI  32
$$

NYZ001>004-010>016-019>021-085-301000-
WEST


CITY           SKY/WX    TMP DP  RH WIND       PRES   REMARKS
NIAGARA FALLS  CLOUDY    43  35  73 CALM      30.17R
BUFFALO        CLOUDY    44  36  73 NE6       30.17R
DUNKIRK        CLOUDY    38  37  97 S5        30.18R WCI  34
JAMESTOWN      CLOUDY    39  37  93 N5        30.13S VSB 1/4
WELLSVILLE     FOG       38  38 100 CALM      30.14R VSB<1/4
ROCHESTER      CLOUDY    45  37  73 N5        30.18S
PENN YAN       CLOUDY    44  43  96 CALM      30.17S FOG
$$

             KEY
       WCI = WIND CHILL INDEX
       VSB = VISIBILITY
       HX  = HEAT INDEX
$$




USA.gov is the U.S. government's official web portal to all federal, state and local government web resources and services.